Regional Weather Roundup
Issued by NWS

Home | Current Version | Previous Version | Text Only | Print | Product List | Glossary Off
Versions: 1 2 3 4 5 6 7 8 9 10 11 12 13 14 15 16 17 18 19 20 21 22 23 24 25 26 27 28 29 30 31 32 33 34 35 36 37 38 39 40 41 42 43 44 45 46 47 48 49 50

000
ASUS44 KMEG 221600
RWRTN
TENNESSEE HOURLY STATE WEATHER ROUNDUP
NATIONAL WEATHER SERVICE MEMPHIS TN
1100 AM CDT SUN APR 22 2018

TNZ002-004-019-021-049-052-054-088>092-221700-
WEST TENNESSEE

CITY           SKY/WX    TMP DP  RH WIND       PRES   REMARKS
MEMPHIS INTL   LGT RAIN  61  60  97 E10       29.92F
NWS MEMPHIS      N/A     59 N/A N/A MISG        N/A
JACKSON        RAIN      59  58  96 E8G20     30.00F FOG
DYERSBURG      RAIN      55  54  96 NE9       30.03R FOG
$$

TNZ008-025-027-028-033-062-065-066-221700-
NORTH MIDDLE TENNESSEE

CITY           SKY/WX    TMP DP  RH WIND       PRES   REMARKS
NASHVILLE      LGT RAIN  59  56  89 E10       30.13F FOG
CLARKSVILLE    LGT RAIN  56  52  86 E8        30.11F FOG
SMYRNA         RAIN      59  57  93 SE7       30.15F
CROSSVILLE     LGT RAIN  57  45  64 SE9G18    30.22S
$$

TNZ061-075-076-078-094-096-097-221700-
SOUTH MIDDLE TENNESSEE

CITY           SKY/WX    TMP DP  RH WIND       PRES   REMARKS
$$

TNZ017-018-042-046-047-221700-
NORTHEAST TENNESSEE

CITY           SKY/WX    TMP DP  RH WIND       PRES   REMARKS
TRI CITIES     CLOUDY    66  44  45 E3        30.26F
$$

TNZ012-013-036-069-073-074-221700-
CENTRAL EAST TENNESSEE

CITY           SKY/WX    TMP DP  RH WIND       PRES   REMARKS
KNOXVILLE      PTSUNNY   63  44  50 NE8       30.22F
OAK RIDGE      CLOUDY    62  44  51 VRB3      30.24F
$$

TNZ083-085-099-221700-
SOUTHEAST TENNESSEE

CITY           SKY/WX    TMP DP  RH WIND       PRES   REMARKS
CHATTANOOGA    LGT RAIN  58  55  90 CALM      30.22R FOG
$$

SKY/WX REPORTED AS FAIR MEANS FEW OR NO CLOUDS BELOW
12 THOUSAND FEET.





USA.gov is the U.S. government's official web portal to all federal, state and local government web resources and services.